User: anonymous
Location: Montague
(41.3030°N, 74.7940°W)
Time: 04:44:42
(UTC-04:00)
Language:

Cosmos 1461 - Orbit

View from above orbital plane
View from above orbital plane
View from above satellite
View from above satellite

Ground track
Ground track

The orbit data is extracted from the following two-line orbital elements,

1 14064U 83044A   14105.84502248  .00006473  00000-0  65079-3 0  4667
2 14064 065.0053 257.8389 0103635 150.9282 006.7784 14.88060981550572
Epoch (UTC): 15 April 2014 20:16:49
Eccentricity: 0.0103635
inclination: 65.0053°
perigee height: 531 km
apogee height: 676 km
right ascension of ascending node: 257.8389°
argument of perigee: 150.9282°
revolutions per day: 14.88060981
mean anomaly at epoch: 6.7784°
orbit number at epoch: 55057

The dashed part of the orbit path shows where the satellite is in the earth's shadow,  

DLR